Regional Weather Roundup
Issued by NWS Sterling, VA

Home | Current Version | Previous Version | Graphics & Text | Print | Product List | Glossary On
Versions: 1 2 3 4 5 6 7 8 9 10 11 12 13 14 15 16 17 18 19 20 21 22 23 24 25 26 27 28 29 30 31 32 33 34 35 36 37 38 39 40 41 42 43 44 45 46 47 48 49 50
000
ASUS41 KLWX 040810
RWRLWX

REGIONAL WEATHER ROUNDUP
NATIONAL WEATHER SERVICE BALTIMORE MD/WASHINGTON DC
400 AM EDT MON MAY 04 2015

Note: "FAIR" indicates few or no clouds below 12,000 feet
with no significant weather and/or obstructions to visibility.
 TC=TEMPERATURE CELSIUS

 * =Non NWS site. Station does not report precipitation (e.g. rain,
    snow, etc.), thunder, or fog.

DCZ001-MDZ009-015-VAZ040>042-051-053>054-040900-
WASHINGTON METRO

CITY           SKY/WX    TMP DP  RH WIND       PRES   REMARKS
WASHINGTON NAT MOCLDY    61  50  67 S3        30.19R
DULLES         PTCLDY    56  46  69 CALM      30.18R
ANDREWS AFB    CLEAR     53  44  71 VRB2      30.17R
FT BELVOIR     CLEAR     48  47  94 NW1       30.19R
QUANTICO       CLEAR     53  48  83 NW5       30.20R
COLLEGE PARK*  CLEAR     52  50  93 CALM      30.18R
LEESBURG*      MOCLDY    50  48  93 CALM      30.19R
MANASSAS*      MOCLDY    48  48 100 CALM      30.19R
GAITHERSBURG*  CLEAR     52  45  76 CALM      30.22R

$$

MDZ006>007-011-014-040900-
BALTIMORE METRO

CITY           SKY/WX    TMP DP  RH WIND       PRES   REMARKS
BWI AIRPORT    PTCLDY    54  45  71 CALM      30.17R
MD SCIENCE CTR   N/A     62  47  57 MISG      30.18R
MARTIN STATE   CLEAR     52  50  93 CALM      30.19S
ANNAPOLIS      CLEAR     56  52  86 CALM      30.17R
FORT MEADE*    CLEAR     46  45  93 CALM      30.20R

$$

MDZ012-015-019>023-040900-
MARYLAND EASTERN SHORE

CITY           SKY/WX    TMP DP  RH WIND       PRES   REMARKS
OCEAN CITY     CLEAR     49  47  93 CALM      30.19S
SALISBURY      CLEAR     50  46  86 CALM      30.19R
BAY BRIDGE AP*   N/A    N/A N/A N/A CALM      30.18S
CAMBRIDGE*     CLEAR     54  50  87 CALM      30.18S
EASTON*        CLEAR     57  50  76 CALM      30.22R

$$

MDZ017>025-040900-
SOUTHERN MARYLAND

CITY           SKY/WX    TMP DP  RH WIND       PRES   REMARKS
PATUXENT RIVER CLEAR     60  46  59 SW7       30.18R
ST INIGOES     CLEAR     53  49  86 CALM      30.19R
LEONARDTOWN*   CLEAR     55  45  67 CALM      30.20S

$$

MDZ003>005-040900-
NORTH CENTRAL MARYLAND

CITY           SKY/WX    TMP DP  RH WIND       PRES   REMARKS
FREDERICK*     CLEAR     50  45  81 SE3       30.20R
HAGERSTOWN APT MOCLDY    60  43  53 SE6       30.17R
WESTMINSTER*   CLEAR     61  43  51 CALM      30.18R

$$

MDZ501>502-040900-
WESTERN MARYLAND

CITY           SKY/WX    TMP DP  RH WIND       PRES   REMARKS
OAKLAND*       CLEAR     55  36  47 S6        30.23R
CUMBERLAND*    CLEAR     50  45  81 CALM      30.22R

$$

VAZ025>031-040900-
SHENANDOAH VALLEY

CITY           SKY/WX    TMP DP  RH WIND       PRES   REMARKS
WINCHESTER*    CLEAR     55  39  54 SW5       30.18S
FRONT ROYAL*   FAIR      54  43  66 S6        30.17S
LURAY*         FAIR      48  48 100 CALM      30.20S
NEW MARKET*    FAIR      46  44  91 CALM      30.20R
STAUNTON*      CLEAR     47  42  85 CALM      30.23R
WAYNESBORO*    FAIR      49  41  73 CALM      30.21S

$$

WVZ021-048>050-054>055-040900-
EASTERN WEST VIRGINIA PANHANDLE

CITY           SKY/WX    TMP DP  RH WIND       PRES   REMARKS
MARTINSBURG    CLEAR     49  44  83 SW3       30.18R
PETERSBURG*    CLEAR     44  40  86 CALM      30.21R

$$

VAZ036>039-050-040900-
CENTRAL FOOTHILLS

CITY           SKY/WX    TMP DP  RH WIND       PRES   REMARKS
CHARLOTTESVILL PTCLDY    50  46  86 CALM      30.19S
CULPEPER*      NOT AVBL
ORANGE*        PTCLDY    50  46  87 CALM      30.21S
GORDONSVILLE*  PTSUNNY   49  47  93 CALM      30.19R
WARRENTON*     FAIR      47  46  99 CALM      30.19R

$$

VAZ055>057-040900-
NORTH AND CENTRAL PIEDMONT

CITY           SKY/WX    TMP DP  RH WIND       PRES   REMARKS
FREDERICKSBRG* CLEAR     53  52  98 CALM      30.19R
STAFFORD*      CLEAR     47  32  55 CALM      30.23R

$$

NCZ024-NYZ072-PAZ021-071-VAZ022-071-040900-
OTHER REGIONAL OBSERVATIONS

CITY           SKY/WX    TMP DP  RH WIND       PRES   REMARKS
NEW YORK CITY  CLEAR     57  47  69 NE3       30.19R
PHILADELPHIA   CLEAR     58  49  72 SW3       30.18R
PITTSBURGH     PTCLDY    53  43  68 CALM      30.15R
ROANOKE        CLEAR     52  46  80 CALM      30.23S
RICHMOND       CLEAR     57  45  64 CALM      30.21R
RALEIGH        PTCLDY    58  52  80 CALM      30.24S

$$

ANZ530>537-040900-
MARINE OBSERVATIONS

STATION/POSITION TIME  TEMP    WIND        PRES
                       AIR SEA DIR/SP/G
                 (UTC) (F)     (DEG/KT/KT) (MB)
THOMAS PT LIGHT  0800   63 59  190/  8/  8 1022.5R
BALT KEY BRIDGE  0700   63      80/  3/  4 1021.4R
COVE POINT       0700   65     270/ 12/ 13 1022.3S
LEWISETTA        0700   61 63              1022.0R
SOLOMONS ISLAND  0700      60                N/A
PINEY POINT      0700           90/  2/  2   N/A

$$



USA.gov is the U.S. government's official web portal to all federal, state and local government web resources and services.